Theta_e
319 314 311 303 295 292 288 293 295 297 297 299 303 304 303 303 302 297 310 319 324 324 326 327 331 330 329 328 327 326 326 326 326 327 328 329 331 335 338 341 341 343 344 345 345 344 343 344 344
316 314 304 298 288 285 288 291 295 299 302 301 303 302 301 300 307 308 309 320 322 322 321 321 329 326 326 325 325 324 324 323 324 324 324 325 326 328 331 336 338 341 342 344 344 344 344 343 341
317 313 300 294 288 285 288 293 298 302 303 302 302 305 304 303 306 307 308 318 319 315 317 321 325 324 324 322 321 320 319 319 319 319 320 321 322 324 326 328 331 336 340 341 343 343 344 345 344
307 302 295 291 288 292 291 295 299 301 301 305 303 300 305 308 308 310 312 312 313 312 314 322 323 321 320 318 317 317 316 316 316 317 319 320 321 321 323 324 326 328 332 338 340 341 342 343 343
306 297 289 287 287 290 293 296 299 298 297 300 302 299 302 307 309 310 310 310 310 309 312 315 319 317 315 314 314 313 313 313 314 316 318 319 320 320 321 322 323 324 326 330 334 338 339 341 341
298 295 287 286 288 292 294 295 297 297 299 298 300 299 300 306 308 309 309 307 309 309 310 312 316 317 315 314 313 312 311 311 313 315 316 317 318 318 319 319 320 322 323 324 327 331 335 337 339
298 292 288 288 290 292 295 297 294 294 296 299 301 298 299 302 307 308 308 307 306 307 307 306 308 312 317 316 314 312 311 311 313 314 315 315 315 316 317 317 318 319 320 321 322 323 328 332 337
300 296 291 290 290 291 296 296 297 297 297 300 301 297 297 304 307 307 306 304 304 304 304 302 304 305 305 305 314 314 314 312 314 314 316 316 316 316 316 315 316 318 319 320 321 321 323 328 332
300 291 287 291 291 292 295 294 298 299 296 298 301 300 302 306 306 304 302 302 302 303 302 300 301 301 302 301 306 310 311 311 312 312 313 312 309 310 312 314 315 316 317 318 318 319 322 327 328
294 287 290 294 292 292 295 294 295 295 295 296 298 301 304 305 304 303 301 301 301 301 301 300 299 300 300 303 302 302 304 303 304 305 306 308 311 311 312 312 314 314 314 315 317 318 318 321 325
295 290 294 295 296 297 295 294 296 293 294 296 297 299 302 301 301 302 301 301 301 302 301 301 300 299 299 299 300 300 300 301 304 304 306 310 310 310 310 310 311 311 310 308 310 310 311 314 325
292 295 295 297 299 297 295 296 296 296 298 299 299 299 302 301 301 301 301 301 301 301 301 300 300 298 298 299 299 299 301 303 303 304 306 310 309 309 309 309 309 310 310 310 311 314 309 316 323
293 294 297 297 298 297 298 296 295 296 300 300 300 300 300 302 302 301 302 302 301 299 299 299 298 298 299 299 299 301 302 303 303 305 310 308 306 306 309 309 309 310 309 310 310 314 319 319 321
296 296 297 298 298 297 296 294 295 298 297 298 298 298 299 300 301 300 300 301 300 299 298 297 298 298 299 300 301 302 302 303 307 309 309 310 307 306 306 307 309 308 309 310 313 318 319 320 320
297 293 295 296 296 296 295 293 293 299 297 297 297 297 298 299 300 300 301 300 300 300 298 297 298 299 300 302 302 303 304 307 308 309 310 311 310 309 306 307 308 308 310 310 315 318 319 318 319
292 291 288 294 296 296 294 291 297 298 295 296 296 297 297 297 299 300 301 301 300 299 297 298 301 301 302 302 302 303 304 306 308 309 309 309 309 309 305 305 307 309 309 314 316 317 316 317 317
289 285 287 292 296 295 292 291 297 298 295 295 296 295 297 297 298 299 300 300 299 298 297 298 299 301 303 303 303 302 303 303 305 307 309 306 307 306 305 306 305 306 311 311 316 315 315 314 314
285 285 289 289 294 292 291 292 296 298 298 298 298 297 296 296 298 299 299 299 298 296 297 298 301 301 302 301 301 301 301 302 303 304 305 305 305 305 305 304 304 310 310 314 314 312 313 309 306
291 289 287 290 294 291 291 292 295 297 296 296 295 294 295 295 297 298 298 297 295 295 296 300 300 301 300 299 298 298 298 300 302 306 306 305 304 305 304 304 305 308 310 313 312 309 307 305 306
290 287 287 291 292 290 290 291 295 297 296 294 295 295 294 294 296 297 295 294 294 294 297 300 301 301 300 299 299 300 299 302 305 305 304 304 304 306 305 304 306 308 312 312 310 308 307 307 309
288 287 285 288 291 291 288 286 290 294 295 294 294 295 295 295 295 295 294 293 293 294 298 300 300 300 300 301 300 301 302 305 307 304 303 303 304 305 305 305 306 310 313 310 309 309 308 306 308
286 291 290 290 287 281 287 279 282 290 292 295 295 294 292 294 295 295 294 292 292 294 298 300 300 300 301 301 299 299 300 303 306 304 303 303 305 305 306 306 311 313 313 311 309 310 310 308 306
289 291 290 288 285 283 281 278 284 288 291 293 294 294 293 294 294 293 293 293 293 297 297 298 299 300 300 300 300 304 300 305 303 303 303 304 306 307 309 311 316 312 312 311 310 310 309 309 309
292 289 288 286 283 275 279 281 282 285 290 292 291 293 294 294 293 294 294 294 295 296 297 297 298 299 299 299 300 303 300 301 302 303 303 304 307 309 311 315 316 311 312 311 311 311 310 310 308
288 285 275 274 272 277 282 280 284 289 292 293 292 293 294 293 293 292 292 292 294 296 296 297 298 298 298 298 298 299 299 301 302 303 304 309 310 312 312 315 315 312 310 309 310 311 310 310 307
285 285 278 272 275 278 281 279 286 291 291 291 293 293 294 292 293 292 292 292 294 296 296 297 297 297 298 298 298 299 299 300 302 303 306 309 310 313 314 315 314 313 312 312 310 312 309 309 307
286 282 286 280 274 275 279 282 288 288 288 289 291 292 292 292 291 292 291 292 293 294 296 297 297 297 298 298 298 299 298 299 301 303 304 305 308 312 314 314 313 313 313 311 312 311 308 306 304
286 288 281 279 272 272 278 279 283 287 290 290 290 291 291 292 291 291 290 290 292 293 295 296 297 297 297 298 298 299 298 298 300 304 304 306 308 311 309 313 313 312 312 312 312 310 309 308 306
284 283 284 284 281 278 276 280 286 286 287 288 289 291 292 292 292 291 291 290 291 292 294 295 296 297 296 297 297 298 299 299 300 302 305 306 307 309 311 309 310 308 309 311 311 310 309 307 306
286 285 285 280 278 280 281 281 288 287 287 288 289 292 293 293 292 291 291 290 289 291 293 295 296 296 297 297 297 297 302 302 298 302 304 305 306 307 309 310 310 311 311 311 310 308 309 308 305
Wind_Speed
5 5 2 5 5 5 4 7 4 0 1 1 2 5 5 2 5 6 1 7 12 9 8 7 10 9 8 7 7 7 6 5 4 4 5 6 6 9 8 7 6 10 11 13 13 13 13 10 10
3 2 5 2 6 2 6 5 3 4 3 2 2 3 3 1 3 5 6 9 12 11 7 6 9 9 8 7 7 6 6 5 5 4 5 5 6 7 8 10 8 9 12 16 17 17 18 16 13
2 1 4 4 4 5 5 3 6 3 2 2 2 3 4 3 1 9 3 13 11 8 7 7 10 10 9 8 7 6 6 5 4 4 5 6 7 8 9 10 13 14 13 15 19 20 20 20 17
1 4 4 4 6 7 5 4 5 4 2 2 3 0 1 1 7 8 10 14 12 8 7 9 11 10 9 7 7 6 5 4 5 6 7 8 8 9 10 11 12 13 17 17 16 21 20 19 19
4 3 3 1 6 5 6 4 7 5 3 3 4 3 3 4 2 10 11 12 13 7 7 7 12 9 8 6 5 5 4 4 4 6 8 9 10 11 12 13 14 14 15 17 18 16 20 18 18
3 3 3 4 6 5 4 2 4 4 4 1 2 5 3 2 8 7 8 9 9 10 6 7 10 10 8 7 5 3 1 2 4 7 8 9 10 12 13 15 16 16 16 16 17 18 15 18 18
5 3 4 4 4 5 4 2 2 2 5 5 2 5 1 3 5 7 7 8 8 8 7 6 6 7 8 7 5 4 2 3 6 7 8 9 10 11 12 12 12 13 15 17 17 17 17 18 18
4 3 2 4 4 6 3 2 2 3 4 2 5 7 6 7 9 7 7 7 8 7 7 7 6 5 4 3 4 3 1 4 8 8 8 9 10 10 10 12 11 11 13 14 14 15 16 16 9
2 3 3 5 3 3 3 1 2 1 1 1 5 4 3 10 10 7 4 4 5 4 6 7 7 5 5 4 2 3 4 7 7 5 6 5 2 4 5 7 11 11 12 13 14 14 15 7 9
4 4 8 5 2 3 3 0 2 2 2 4 4 1 4 9 12 11 8 9 6 7 6 6 6 6 4 2 1 2 3 3 3 3 3 3 4 0 5 6 8 10 11 10 12 15 14 9 4
5 6 5 4 2 2 3 4 2 2 7 9 9 7 8 6 7 9 8 8 9 6 5 6 6 5 4 2 1 1 1 2 2 4 3 4 3 3 2 2 2 3 6 3 5 6 4 4 3
3 8 5 4 3 2 3 3 6 7 12 2 8 3 9 10 11 11 9 9 7 7 8 7 7 5 3 2 1 1 2 1 2 2 4 3 2 2 3 2 3 3 3 5 3 3 4 4 6
4 4 4 4 5 6 3 6 6 13 14 9 8 6 11 13 12 7 8 7 6 7 8 8 6 5 4 2 1 1 2 2 2 3 4 2 3 3 3 3 2 3 3 3 4 5 6 8 11
3 4 7 7 6 4 4 4 2 8 3 7 7 10 10 12 14 6 7 8 8 8 8 7 6 5 4 2 1 1 2 3 3 2 3 2 3 2 3 3 3 3 3 3 4 2 6 6 11
2 5 7 5 4 6 1 7 11 14 5 8 8 8 8 11 9 13 12 9 10 8 9 8 7 5 4 2 1 2 2 3 2 3 4 2 1 3 3 2 3 3 3 6 6 5 6 8 10
3 2 4 1 6 2 2 10 7 5 5 11 11 9 8 9 12 10 9 8 8 10 9 7 5 6 4 3 2 2 3 3 2 3 2 3 3 2 3 2 2 3 3 4 2 6 8 9 9
2 4 5 6 5 3 3 8 8 5 4 9 10 9 9 8 8 9 9 10 11 10 9 8 7 6 4 3 2 2 3 3 3 3 2 1 2 1 3 1 2 3 2 4 4 6 9 10 9
7 5 5 6 4 1 4 18 15 13 13 16 16 11 10 10 13 9 9 10 10 8 8 8 6 6 5 3 2 2 2 3 3 2 1 0 1 1 2 1 2 2 3 2 7 8 9 10 10
4 3 4 4 3 3 8 15 18 13 12 16 14 10 9 10 4 8 10 11 9 7 8 7 7 5 3 1 1 1 2 2 2 2 1 2 2 1 1 0 2 3 1 9 10 9 13 9 9
5 4 7 5 1 3 5 16 19 18 13 7 8 8 7 5 8 10 11 8 7 8 8 7 7 6 3 2 2 1 1 3 2 0 2 2 2 1 1 3 1 2 4 8 9 10 9 5 3
5 7 5 6 2 4 6 10 7 6 5 5 4 3 0 8 12 11 12 9 8 8 8 7 7 6 4 3 1 1 1 2 2 1 1 1 1 1 1 2 2 2 9 7 7 8 14 8 5
5 5 5 4 2 4 3 9 7 8 12 5 7 5 1 5 6 10 11 8 8 7 7 7 7 6 4 4 2 3 2 3 1 1 1 2 0 1 0 3 3 4 7 8 7 7 7 7 9
7 2 3 3 2 3 3 3 11 4 10 7 4 7 4 6 8 10 10 9 7 7 7 6 7 6 5 4 4 3 2 2 1 1 3 1 0 3 2 3 5 7 7 7 9 8 8 5 2
6 5 7 5 3 2 5 6 9 5 6 3 2 5 6 7 8 7 6 7 7 6 6 6 7 5 5 5 5 3 3 3 3 2 3 2 1 2 1 1 6 5 7 8 8 5 8 6 6
3 6 3 5 3 7 1 4 13 8 8 6 6 8 7 6 8 9 9 8 7 8 7 6 7 6 6 6 5 4 4 3 5 4 3 3 2 2 2 4 5 4 6 5 6 8 7 5 8
8 9 7 7 4 3 2 7 11 7 5 3 4 3 5 5 6 9 9 8 8 8 7 7 7 6 6 6 6 5 4 2 2 3 3 3 2 2 4 4 5 8 8 6 6 5 5 6 6
7 5 5 5 2 4 5 7 12 2 2 4 4 2 6 6 7 8 8 8 8 8 8 8 7 6 6 6 5 5 4 4 3 4 3 3 3 3 6 6 6 7 8 8 6 5 6 6 5
4 5 3 2 2 5 4 5 8 6 8 6 7 8 6 5 6 6 6 8 6 6 6 6 6 7 6 6 5 4 5 4 3 3 4 3 3 4 5 8 8 8 8 8 7 5 5 7 5
3 4 3 4 5 5 2 7 4 5 6 8 8 7 7 7 7 7 7 6 6 5 6 6 6 6 6 6 5 6 5 5 4 4 4 3 3 4 5 6 7 7 7 7 7 7 7 7 6
2 6 7 5 5 3 3 7 3 6 7 7 9 8 5 6 6 6 6 6 5 6 6 7 6 6 6 6 6 6 5 5 5 5 4 4 4 3 4 5 7 7 8 7 7 7 8 9 9
Wind_Direction
319 348 50 40 64 67 259 258 269 161 85 211 119 121 146 93 151 205 75 129 133 132 130 128 133 129 121 109 98 89 78 62 47 28 4 353 342 335 324 312 308 268 241 230 223 213 207 188 179
357 69 37 93 90 79 263 257 242 232 191 140 90 91 71 205 127 141 118 162 135 137 134 127 133 127 121 112 103 91 79 64 50 27 5 343 323 313 308 301 295 291 256 243 233 224 218 212 213
331 100 90 103 117 193 219 244 208 217 134 148 99 50 152 201 131 170 183 143 131 126 131 135 133 128 123 117 109 98 83 67 41 9 345 330 322 317 309 298 299 289 286 259 247 235 225 224 216
47 19 27 98 223 254 238 241 224 165 304 68 121 221 30 100 168 190 143 126 128 137 137 140 133 129 125 119 107 96 77 53 21 356 335 322 317 311 303 295 289 282 282 281 273 251 238 232 224
47 68 81 168 254 249 266 214 169 196 185 188 141 227 253 309 136 136 141 134 134 143 147 136 138 140 134 126 112 92 62 34 358 332 319 317 311 306 303 299 294 288 286 288 286 282 259 249 241
47 99 81 216 251 277 260 310 201 191 166 169 157 147 231 107 133 162 136 137 138 146 150 151 151 153 151 145 145 138 104 351 343 334 330 324 320 312 308 304 297 292 286 284 287 286 287 269 247
133 114 218 233 252 300 236 277 193 238 146 242 156 166 298 191 194 153 145 134 138 145 150 158 167 169 166 171 189 200 244 309 326 323 319 316 311 308 305 308 304 298 289 283 281 284 284 289 257
119 107 264 254 241 257 255 304 176 200 241 29 160 227 236 200 172 150 137 138 149 159 164 169 174 169 156 191 229 245 248 309 313 305 295 293 303 306 305 309 307 304 296 293 284 274 278 273 300
97 68 232 252 208 251 307 274 278 301 98 231 224 173 228 135 137 130 132 151 158 177 175 169 167 164 159 184 129 49 350 330 319 319 314 320 288 295 288 292 310 315 306 295 277 279 281 302 311
117 143 222 223 207 229 290 237 303 272 238 253 271 331 94 140 159 167 173 182 189 188 197 181 158 160 157 148 84 26 349 329 318 307 312 287 244 303 304 287 301 312 312 322 302 280 265 295 297
168 205 223 262 225 208 254 284 277 223 260 218 220 198 169 173 181 181 193 188 194 187 174 177 155 165 147 126 79 3 338 317 320 325 295 277 301 254 256 289 305 301 292 303 305 290 261 224 259
188 236 224 275 236 223 248 296 292 210 242 222 224 188 171 185 195 199 197 199 196 185 180 164 159 154 147 122 61 315 307 315 307 290 277 281 290 284 263 279 298 303 298 306 315 282 230 191 128
217 259 243 245 280 258 293 247 244 259 258 252 252 203 198 204 206 210 201 198 182 164 154 160 155 154 145 113 50 328 304 299 274 266 282 318 310 292 306 299 301 303 313 314 317 300 148 138 126
213 254 273 278 264 241 233 260 99 265 315 302 243 235 217 205 207 194 192 203 178 151 152 154 159 157 128 107 41 303 301 283 255 290 295 292 251 267 289 289 308 305 323 318 294 270 132 129 125
262 317 320 250 233 215 186 278 232 257 336 287 269 267 219 218 197 203 199 185 167 162 150 161 152 134 107 91 27 351 305 287 291 268 265 275 209 283 288 290 310 308 339 321 315 136 109 120 114
5 48 323 227 150 221 170 269 265 304 205 246 256 251 242 226 214 204 193 169 153 142 151 151 134 115 106 89 62 357 345 326 267 259 275 265 243 235 280 295 304 320 348 325 309 120 113 114 111
342 246 214 300 209 132 176 266 261 290 265 264 258 243 239 244 218 206 186 159 154 151 145 136 120 117 113 95 58 11 328 304 308 321 321 322 262 262 236 274 328 334 11 322 125 109 113 104 92
203 219 255 251 218 211 227 264 268 272 272 265 266 253 233 227 220 185 154 140 138 139 133 127 122 122 114 84 51 10 340 303 295 294 339 153 179 137 219 283 52 345 5 75 96 110 87 97 95
148 192 245 281 250 201 237 269 280 278 264 278 265 255 237 226 206 132 134 130 125 130 131 135 129 136 119 89 93 321 297 305 311 4 248 145 109 148 208 46 88 60 350 122 122 110 102 97 108
283 277 262 273 231 220 285 276 282 280 263 247 259 275 247 166 136 134 135 134 142 146 141 134 132 135 131 139 189 188 235 277 259 218 66 99 84 300 203 131 102 71 112 121 115 124 117 107 98
222 210 225 226 324 272 323 290 324 292 272 252 215 232 345 187 153 149 152 156 144 149 152 142 143 140 147 159 129 302 273 258 93 34 79 100 80 18 103 137 163 97 127 123 123 140 141 131 113
229 213 194 189 104 229 17 285 300 289 300 272 254 239 105 127 133 151 151 156 159 159 146 138 142 144 154 162 144 199 189 142 124 204 156 75 148 123 335 268 189 144 131 136 131 140 131 135 142
225 88 175 155 114 11 327 75 267 322 296 305 291 227 189 165 154 159 160 156 154 148 152 147 142 144 157 172 175 221 166 169 183 98 100 100 46 125 164 247 181 144 137 139 146 160 142 145 111
138 82 37 41 82 350 232 151 288 242 216 270 294 249 198 171 157 149 140 138 144 146 146 150 146 158 169 177 186 228 202 163 128 110 114 126 105 103 165 200 130 121 134 144 149 125 133 135 122
101 90 308 348 360 220 318 90 245 268 272 252 255 230 219 181 162 158 157 163 157 165 166 162 157 173 181 184 194 205 226 187 134 132 140 138 152 152 145 110 109 109 114 128 127 136 151 137 140
191 166 165 206 202 255 33 228 253 230 273 301 287 238 176 187 179 171 169 169 171 172 171 169 169 179 183 186 199 195 210 233 146 135 136 133 126 154 141 128 125 125 139 141 140 138 149 139 143
195 195 176 100 34 55 228 278 299 350 318 315 297 169 196 198 196 181 169 178 176 177 185 176 177 187 188 190 195 192 200 209 191 155 146 145 137 158 151 144 142 139 144 150 151 146 154 148 149
151 171 91 358 185 246 275 275 240 359 325 301 282 253 234 207 189 197 190 185 192 188 182 176 185 191 191 188 198 198 193 209 211 188 171 158 138 143 167 161 162 163 161 160 154 157 151 156 161
160 191 206 146 164 184 165 256 223 341 337 333 320 263 232 210 202 208 201 199 190 181 182 190 190 195 197 192 193 211 192 195 215 209 186 182 179 154 160 167 161 162 163 165 166 169 163 163 155
261 212 176 154 212 228 150 272 10 11 354 345 351 335 253 212 208 216 207 190 189 200 193 200 196 198 202 194 191 201 207 188 198 206 195 191 195 192 170 163 165 168 173 169 173 176 186 181 178